Content
SEND FEEDBACK

Daily
Averages
Monthly
Summary
United Kingdom

ROFFEY, ENGLAND


Home > Europe > United Kingdom > England
Elevation: 150 feet     Latitude: 51 18N     Longitude: 000 27W

WEATHER
 
SELECT A DAY
Number of Records: 349,661;   Date Range: 7/1/96 - 9/30/14
 
SHARE

PRINT THIS DATA

[ ← Previous Day ]
WEATHER ALMANAC - NOVEMBER 9, 2013
[ Next Day → ]
[ °C ]   °F
Weather ElementAverageHighLow
Temperature42.4 °F46.4 °F (2:20 pm)39.2 °F (4:20 am)
Dewpoint40.5 °F42.8 °F (11:20 am)37 °F (6:00 am)
Humidity92.4 %100 % (12:20 am)79 % (3:00 pm)
Barometer29.70 in29.78 in (3:00 am)29.62 in (9:20 pm)
Wind Speed5.9 mph10.4 mph (5:50 pm)
Weather ElementAverage
Visibility8.2 mi
Wind DirectionSSW (189.3 °)

Weather ElementTotal
Precipitation---
Heating Degree Days22.2 (Base 65)
Averaged from 55 records on November 9, 2013
WEATHER CONDITIONS BREAKOUT
WIND DIRECTION BREAKOUT
WEATHER BY HOUR - NOVEMBER 9, 2013
[ °C ]   °F
Local TimeTemperatureDewpointHumidityBarometerVisibilityWind DirectionWind SpeedGust SpeedPrecipitationEventsConditions
12:20 AM41.0 °F41.0 °F100 %29.74 inWSW (250°)8.1 mphClear
12:50 AM41.0 °F39.2 °F93 %29.74 inWSW (240°)6.9 mphClear
1:20 AM41.0 °F39.2 °F93 %29.77 in6.2 miSSW (200°)5.8 mph
1:50 AM41.0 °F39.2 °F93 %29.77 in6.2 miSouth (190°)4.6 mph
2:20 AM41.0 °F39.2 °F93 %29.77 in6.2 miWSW (240°)9.2 mph
2:50 AM41.0 °F39.2 °F93 %29.77 inWSW (240°)8.1 mphClear
3:00 AM41.0 °F38.0 °F84 %29.78 in28.0 miSW (230°)9.2 mph
3:20 AM41.0 °F39.2 °F93 %29.77 inSW (220°)6.9 mphClear
3:50 AM41.0 °F39.2 °F93 %29.77 inSW (220°)5.8 mphClear
4:20 AM39.2 °F37.4 °F93 %29.77 inSW (230°)6.9 mphClear
4:50 AM39.2 °F37.4 °F93 %29.77 inSW (220°)5.8 mphClear
5:20 AM39.2 °F37.4 °F93 %29.77 inSW (220°)4.6 mphClear
5:50 AM39.2 °F37.4 °F93 %29.77 inSW (220°)6.9 mphClear
6:00 AM40.0 °F37.0 °F86 %29.78 in25.0 miSW (220°)8.1 mph
6:20 AM39.2 °F37.4 °F93 %29.77 inWSW (240°)6.9 mphClear
6:50 AM39.2 °F37.4 °F93 %29.77 inSW (220°)8.1 mphClear
7:20 AM39.2 °F37.4 °F93 %29.77 inSouth (180°)5.8 mphClear
7:50 AM39.2 °F37.4 °F93 %29.77 inSSE (150°)4.6 mphClear
8:20 AM39.2 °F37.4 °F93 %29.77 inSouth (180°)4.6 mphClear
8:50 AM41.0 °F39.2 °F93 %29.74 inVariable3.5 mphClear
9:00 AM41.0 °F38.0 °F84 %29.76 in25.0 miESE (110°)3.5 mphMostly Cloudy
9:20 AM42.8 °F39.2 °F87 %29.74 inVariable3.5 mphClear
9:50 AM42.8 °F41.0 °F93 %29.74 inCalmClear
10:20 AM42.8 °F41.0 °F93 %29.74 in3.1 miVariable5.8 mphRainLight Rain Showers
10:50 AM44.6 °F41.0 °F87 %29.74 in6.2 miSW (220°)6.9 mphRainLight Rain
11:20 AM42.8 °F42.8 °F100 %29.71 in3.7 miSW (220°)6.9 mphRainRain
11:50 AM44.6 °F42.8 °F93 %29.71 in6.2 miVariable2.3 mphRainLight Rain
12:00 PM45.0 °F42.0 °F83 %29.71 in16.0 miNW (310°)2.3 mphRainLight Rain
12:20 PM44.6 °F42.8 °F93 %29.68 in6.2 miESE (120°)4.6 mphLight Drizzle
12:50 PM44.6 °F42.8 °F93 %29.68 in3.7 miESE (110°)5.8 mphLight Drizzle
1:20 PM44.6 °F42.8 °F93 %29.65 in6.2 miEast (90°)5.8 mphMostly Cloudy
1:50 PM44.6 °F42.8 °F93 %29.65 in6.2 miENE (60°)5.8 mphMostly Cloudy
2:20 PM46.4 °F42.8 °F87 %29.65 in6.2 miVariable3.5 mphScattered Clouds
2:50 PM44.6 °F42.8 °F93 %29.65 in6.2 miNNW (330°)4.6 mphMostly Cloudy
3:00 PM46.0 °F42.0 °F79 %29.66 in17.0 miNNW (330°)4.6 mphMostly Cloudy
3:20 PM44.6 °F42.8 °F93 %29.65 in6.2 miNNW (330°)5.8 mphMostly Cloudy
3:50 PM44.6 °F42.8 °F93 %29.65 in6.2 miVariable3.5 mphMostly Cloudy
4:20 PM44.6 °F42.8 °F93 %29.65 in6.2 miWNW (300°)4.6 mphMostly Cloudy
4:50 PM42.8 °F42.8 °F100 %29.65 in6.2 miWNW (300°)4.6 mphMostly Cloudy
5:20 PM42.8 °F41.0 °F93 %29.68 in6.2 miWest (280°)5.8 mphScattered Clouds
5:50 PM42.8 °F41.0 °F93 %29.68 in6.2 miWest (270°)10.4 mphPartly Cloudy
6:00 PM43.0 °F40.0 °F87 %29.68 in18.0 miWSW (250°)10.4 mphMostly Cloudy
6:20 PM42.8 °F41.0 °F93 %29.65 in6.2 miWSW (250°)8.1 mphPartly Cloudy
6:50 PM42.8 °F41.0 °F93 %29.65 in6.2 miSW (230°)8.1 mphPartly Cloudy
7:20 PM42.8 °F41.0 °F93 %29.68 inWest (260°)9.2 mphClear
7:50 PM42.8 °F41.0 °F93 %29.65 in5.6 miSSW (210°)6.9 mph
8:20 PM42.8 °F41.0 °F93 %29.65 in5.0 miSSW (210°)6.9 mph
8:50 PM42.8 °F41.0 °F93 %29.65 in5.0 miWSW (240°)6.9 mph
9:00 PM43.0 °F41.0 °F89 %29.65 in6.0 miSW (220°)6.9 mphLight Haze
9:20 PM42.8 °F41.0 °F93 %29.62 in4.3 miSW (230°)8.1 mph
9:50 PM44.6 °F42.8 °F93 %29.62 in4.3 miWSW (240°)9.2 mphRainLight Rain
10:20 PM42.8 °F42.8 °F100 %29.62 in3.7 miWest (270°)8.1 mphRainLight Rain
10:50 PM42.8 °F42.8 °F100 %29.62 in5.0 miNW (310°)4.6 mphRainLight Rain
11:20 PM44.6 °F42.8 °F93 %29.62 in6.2 miVariable2.3 mphRainLight Rain
11:50 PM42.8 °F42.8 °F100 %29.62 in6.2 miCalmRainLight Rain
Hourly data recorded from EGLL, located miles away from Roffey, England







STORIES FROM OUR PARTNERS